Location: Gniazdowice
(50.2124°N, 20.2673°E)
Time: 22:53:22
(UTC+00:00)

ATLAS CENTAUR R/B - Pass Details

Date: 23 May 2024
Orbit: 442 x 587 km, 64.6° (Epoch: 22 June)

Event Time Altitude Azimuth Distance (km) Brightness Sun altitude
Rises 01:40:10 0° 167° (SSE) 2,422 4.3 -8.3°
Reaches altitude 10° 01:43:24 10° 133° (SE) 1,567 3.7 -7.9°
Maximum altitude 01:44:39 12° 112° (ESE) 1,478 3.8 -7.8°
Drops below altitude 10° 01:45:57 10° 90° (E) 1,588 4.4 -7.7°
Sets 01:49:15 0° 57° (ENE) 2,489 6.7 -7.3°
